Wind_Speed
34 30 25 13 20 21 8 3 3 3 7 8 6 8 10 10 10 11 11 10 9 9 14 21 18 16 16 22 25 28 29 31 34 35 33 24 21 22 23 18 14 12 10 10 10 14 13 11 1
35 30 21 15 4 6 5 5 2 3 6 6 3 1 3 3 7 6 2 7 11 11 15 16 16 18 22 25 27 29 31 34 35 34 27 22 23 23 21 17 13 12 11 10 11 10 10 3 4
31 21 7 13 9 3 4 4 1 9 11 10 9 4 3 5 5 7 9 8 11 12 16 17 19 21 25 31 34 32 33 33 28 23 23 27 26 20 15 14 12 13 11 11 8 8 5 6 15
36 29 14 11 8 7 4 4 13 6 10 10 7 3 3 1 6 5 8 11 13 18 19 22 26 27 31 34 37 29 26 24 21 27 34 33 23 20 22 18 14 14 11 7 3 6 9 15 16
22 22 21 13 13 8 9 9 8 6 7 5 2 2 0 4 5 9 11 13 16 19 22 24 27 29 31 33 20 19 22 29 25 31 28 29 29 28 21 15 9 5 5 2 8 12 16 18 18
24 23 22 16 11 9 12 10 6 2 6 6 5 5 6 4 4 6 9 12 16 19 22 25 25 23 15 16 17 19 28 34 34 31 29 25 24 19 14 10 7 1 6 13 14 18 21 22 23
21 22 15 13 10 11 11 10 10 12 14 15 15 15 15 13 12 11 11 12 12 12 14 15 12 9 10 14 21 27 34 29 27 25 20 16 12 8 6 4 4 8 13 15 22 25 24 22 22
23 22 15 14 14 20 22 20 18 20 22 23 25 24 22 22 22 20 21 22 20 17 13 9 5 6 13 21 24 31 23 22 21 19 14 10 7 7 6 7 10 15 19 25 29 27 28 23 22
15 22 24 27 27 24 23 22 21 20 20 20 21 24 26 28 28 26 24 29 27 26 23 17 13 17 15 18 21 19 28 31 29 29 25 22 21 20 21 26 28 30 31 31 30 30 26 22 23
25 26 28 25 24 23 23 22 21 21 21 19 23 22 23 25 29 31 31 34 34 30 28 22 16 16 15 14 19 32 32 39 42 38 33 32 31 35 36 36 39 40 36 32 29 27 23 22 25
20 20 21 23 22 20 22 18 18 20 20 22 24 28 24 29 33 35 35 36 38 36 33 32 25 22 19 19 17 21 33 36 43 40 37 33 32 40 38 38 39 37 34 32 29 24 17 15 19
18 16 17 19 14 16 14 15 18 19 20 22 23 24 24 25 28 32 37 37 36 38 36 35 34 27 22 20 24 27 27 26 28 33 30 35 34 37 38 32 35 35 29 29 19 16 17 11 7
15 18 16 11 8 11 12 12 12 16 16 19 19 20 22 22 24 27 28 33 36 37 37 36 36 34 30 24 21 28 28 30 27 30 25 29 29 33 28 26 21 22 25 21 20 24 12 4 11
12 10 15 13 11 8 6 6 7 11 12 11 12 14 15 16 18 20 21 24 30 28 34 34 36 35 34 31 27 24 22 25 21 20 21 21 22 25 23 18 17 20 24 23 19 28 10 8 5
14 12 13 11 12 8 6 3 1 0 1 5 9 9 9 10 11 15 18 20 23 25 25 28 32 32 32 31 30 29 20 19 19 20 17 18 18 17 16 12 14 16 19 18 19 20 13 5 8
18 15 17 15 15 13 10 8 7 7 6 9 8 8 8 12 13 13 16 15 17 20 21 23 24 28 29 28 29 30 30 23 19 17 12 13 13 12 10 8 8 11 14 12 13 13 13 7 12
16 12 13 14 19 16 13 12 11 13 14 15 15 13 11 9 10 13 14 15 14 15 16 19 22 23 24 27 27 28 27 24 21 19 17 16 13 11 9 5 3 4 8 10 9 10 11 8 9
20 13 13 16 16 16 14 13 16 17 22 22 23 20 16 16 11 9 12 16 16 16 16 16 18 20 22 23 26 24 23 21 18 17 16 15 14 15 13 10 11 12 6 4 8 11 12 12 12
13 15 6 18 12 15 20 23 22 20 23 25 26 24 22 17 18 15 15 14 17 17 17 17 17 17 18 19 20 24 21 17 17 13 10 12 12 8 8 8 7 6 6 6 6 1 8 11 9
29 18 11 18 26 23 22 26 29 22 22 29 30 28 26 26 26 23 18 18 17 18 18 18 18 19 18 19 27 27 22 19 16 15 10 10 10 10 8 6 4 4 3 4 4 5 4 2 3
42 32 32 22 14 10 21 15 19 23 26 31 26 32 33 32 29 28 24 22 20 19 21 24 25 25 24 28 29 21 22 18 13 10 13 14 10 10 7 6 9 8 8 4 1 2 3 4 5
49 44 44 48 42 47 36 31 29 30 30 28 23 26 27 24 35 33 26 23 24 25 28 31 30 32 30 32 33 25 15 11 11 11 11 11 11 16 14 18 18 18 12 11 10 8 8 10 11
52 51 49 46 51 46 50 42 36 31 30 29 22 29 29 40 41 38 34 28 28 30 31 31 34 36 35 23 19 16 19 12 11 14 15 13 13 13 12 20 25 22 23 16 14 13 14 14 12
56 52 57 59 58 50 52 46 48 37 33 39 40 40 38 34 37 36 36 32 36 37 37 36 38 34 35 31 23 17 23 24 29 27 25 21 19 14 19 16 26 26 26 24 28 24 20 20 19
64 61 64 64 64 66 63 54 57 67 63 57 54 59 46 34 50 48 41 45 43 47 50 46 38 43 47 40 34 34 38 35 38 34 32 29 28 28 25 30 35 32 27 35 36 32 29 30 30
69 68 67 67 67 70 73 71 71 74 70 67 67 61 47 52 40 39 45 54 55 61 53 53 52 48 45 43 44 36 40 38 40 42 44 45 40 34 37 41 44 44 44 41 41 41 40 36 35
68 67 72 72 72 74 78 78 74 72 75 75 67 56 51 53 58 56 62 68 68 64 58 57 57 51 54 52 41 44 52 56 54 56 56 55 46 44 44 47 51 52 52 49 49 47 44 44 43
69 72 73 73 73 76 78 83 83 80 77 72 75 64 66 69 68 72 75 75 70 64 57 58 55 57 53 55 58 57 57 61 65 64 57 53 55 57 54 57 58 60 62 59 58 56 54 51 50
73 75 81 76 78 81 83 89 87 77 78 85 85 68 70 77 78 76 75 75 74 68 56 59 55 51 53 59 63 65 68 68 65 66 71 72 65 65 68 66 64 68 67 69 65 63 62 59 56
67 69 78 85 81 84 85 88 84 65 73 90 84 85 86 78 78 79 72 73 76 71 72 66 54 63 67 70 71 70 71 74 74 74 75 76 73 71 71 70 64 70 71 74 74 73 66 67 67
Wind_Direction
151 155 145 111 149 174 142 151 156 293 314 283 239 242 248 249 238 242 252 254 253 263 254 269 277 295 307 308 308 309 309 309 309 310 315 309 300 303 304 299 293 294 302 298 319 340 335 337 339
152 156 156 186 159 85 189 196 284 12 100 123 122 28 332 290 259 263 273 263 264 252 267 274 280 305 305 313 311 309 308 310 313 316 311 304 304 305 302 293 287 291 314 306 322 349 345 62 59
142 121 179 201 166 163 183 233 296 106 118 113 74 58 259 267 267 259 277 271 268 278 298 301 300 305 309 315 314 314 311 314 320 318 315 312 309 307 297 287 288 287 297 305 332 10 47 91 63
134 138 146 148 156 145 125 126 139 140 113 103 68 48 44 24 244 279 289 296 294 297 297 300 307 305 310 310 311 313 318 321 328 306 307 307 305 296 304 298 297 280 281 290 18 77 107 86 72
164 162 156 156 151 104 130 128 160 166 96 74 58 304 184 257 271 279 276 281 288 287 291 291 292 296 305 303 316 320 321 321 308 310 306 300 302 297 298 294 302 305 304 138 120 111 108 90 84
134 144 153 153 147 128 129 143 149 74 56 54 61 38 47 31 20 335 304 287 286 285 284 289 291 301 306 319 316 324 323 322 311 308 307 304 299 296 295 285 274 182 110 126 118 115 107 97 88
117 131 138 150 149 145 131 127 122 93 78 71 65 55 53 47 37 21 10 351 344 333 310 299 298 288 305 329 347 340 324 329 323 319 315 309 305 300 292 263 206 157 143 132 124 118 109 99 77
136 127 145 155 141 123 116 110 100 87 80 71 63 59 55 52 55 54 55 44 42 34 34 32 30 347 340 350 339 331 350 354 5 8 11 26 56 81 100 109 117 132 133 128 122 119 109 99 78
147 136 131 129 127 123 117 111 103 91 78 73 63 58 55 54 59 61 61 57 56 53 43 39 31 20 10 333 331 27 33 34 40 44 51 62 72 85 90 97 105 112 118 118 116 106 99 86 70
123 124 129 128 125 122 117 105 100 76 66 67 56 54 52 54 53 53 58 59 57 55 52 46 34 22 7 31 56 47 43 52 54 57 62 72 80 85 95 105 110 113 117 121 115 107 104 94 73
114 123 121 121 117 124 116 73 88 71 71 66 61 57 56 58 54 49 50 50 49 52 54 51 53 53 61 65 63 44 44 63 56 65 64 68 78 90 99 107 112 114 120 116 102 108 114 81 95
123 121 126 131 119 106 116 73 77 75 77 68 63 62 58 48 48 48 45 46 43 44 44 49 52 57 68 78 64 59 63 65 61 73 80 69 87 93 100 103 110 104 111 111 121 125 116 72 66
140 130 139 131 124 111 98 77 73 84 90 88 70 56 54 55 45 35 38 35 38 40 41 42 47 49 56 57 55 68 75 80 80 78 78 91 91 97 94 100 106 118 120 127 145 128 89 36 58
167 163 154 153 150 136 113 83 79 81 85 93 61 62 53 47 41 35 29 29 30 34 36 38 43 43 46 51 52 63 73 82 85 76 92 97 99 104 104 107 112 119 123 143 157 121 126 108 183
195 205 207 192 182 180 186 173 204 323 78 26 28 38 38 36 36 24 16 13 14 25 32 32 38 42 40 43 53 57 67 67 75 84 76 84 89 94 103 110 105 120 132 152 171 180 147 49 150
211 217 228 219 216 221 230 229 262 288 306 315 324 332 3 1 356 356 358 8 5 8 10 19 24 36 37 35 36 44 59 64 61 77 86 94 99 99 93 94 110 116 125 152 187 198 197 187 151
225 228 234 250 232 223 235 254 266 286 288 291 295 299 299 306 332 339 340 332 342 351 357 5 4 11 24 29 29 32 35 50 58 68 74 79 84 92 92 85 77 138 160 173 195 205 210 226 245
203 227 262 260 228 222 238 257 276 288 291 289 289 280 278 287 292 305 326 326 321 321 333 336 337 347 356 10 14 20 23 28 32 41 50 52 65 87 89 80 68 63 73 183 219 231 240 239 253
231 236 241 231 231 279 274 275 278 280 277 277 279 275 276 280 287 296 308 317 314 315 317 325 331 331 336 346 359 1 3 1 5 14 11 16 19 28 36 56 39 46 71 68 71 358 239 238 230
215 219 257 226 254 273 265 272 279 269 290 285 285 271 268 272 275 282 291 299 310 316 320 319 322 329 329 330 340 345 345 339 338 350 355 345 360 10 24 15 6 350 356 12 28 51 100 134 249
223 209 207 182 225 234 248 235 253 275 275 285 292 290 268 273 278 267 276 286 294 296 304 310 316 320 324 324 323 323 328 308 315 325 326 347 324 338 293 336 341 315 291 295 292 273 244 253 252
235 235 237 232 238 238 245 259 247 253 271 259 266 264 267 271 283 271 259 266 283 292 300 306 309 312 315 328 322 317 312 304 302 311 301 308 306 286 288 268 307 311 298 271 253 240 234 233 239
240 241 236 239 239 243 242 248 248 248 252 239 267 262 283 288 282 264 254 264 271 284 288 293 296 299 302 307 312 293 287 294 291 282 294 280 291 270 294 282 280 294 313 275 275 257 264 256 247
248 247 251 249 241 231 238 239 235 232 234 241 247 267 283 273 263 263 265 269 280 286 286 295 307 300 295 295 292 282 283 283 288 267 285 284 271 258 258 249 261 288 282 261 268 282 272 258 257
248 248 251 252 252 249 234 225 236 257 258 251 252 252 265 275 259 262 261 277 286 287 292 293 287 276 283 282 273 282 265 285 278 264 274 276 269 263 241 239 241 260 261 261 270 269 268 266 272
244 245 250 253 256 256 252 244 241 250 256 261 265 272 265 256 261 245 270 278 278 282 291 293 290 282 274 271 278 260 255 256 262 268 272 273 263 262 259 253 256 260 257 257 259 266 267 268 270
251 250 247 248 250 253 256 255 248 250 250 252 255 259 262 261 252 248 265 274 277 283 286 280 279 273 272 278 263 257 253 257 265 272 276 273 263 261 261 257 261 262 262 259 255 260 261 262 265
253 254 252 253 252 254 255 255 252 249 249 251 252 246 253 262 266 266 266 269 275 275 275 278 279 278 274 269 267 262 260 262 265 270 268 269 268 263 260 265 263 264 264 263 262 260 258 258 256
246 250 255 251 252 253 253 257 257 257 258 254 252 246 247 253 260 265 270 275 275 277 270 264 268 269 268 270 270 268 270 273 269 270 271 270 266 259 262 265 262 261 261 260 261 258 257 252 254
251 248 249 255 254 255 256 257 263 273 277 268 269 267 259 258 263 267 264 267 271 271 272 270 259 264 269 270 272 274 272 273 275 274 274 271 272 268 268 269 267 259 260 255 255 254 258 258 254
Height
10995 11000 11006 11008 11010 11013 11013 11015 11013 11013 11012 11012 11012 11010 11010 11009 11009 11009 11009 11009 11008 11008 11008 11007 11005 11003 11003 11001 10999 10996 10994 10991 10988 10986 10985 10983 10982 10982 10982 10982 10982 10981 10982 10983 10983 10983 10983 10981 10979
10999 11003 11010 11009 11012 11014 11015 11015 11015 11014 11012 11013 11012 11011 11010 11010 11010 11009 11009 11008 11007 11007 11007 11006 11004 11003 11001 10999 10996 10993 10989 10986 10984 10981 10979 10979 10979 10979 10979 10979 10980 10981 10982 10983 10985 10985 10985 10983 10983
11002 11012 11012 11014 11013 11016 11016 11015 11016 11016 11014 11013 11012 11012 11013 11011 11010 11009 11009 11008 11007 11007 11006 11004 11002 11000 10998 10995 10992 10989 10986 10982 10979 10977 10977 10976 10976 10976 10976 10977 10979 10980 10982 10984 10986 10986 10986 10986 10987
11008 11012 11008 11013 11015 11016 11017 11015 11017 11018 11016 11015 11014 11013 11013 11010 11009 11009 11008 11007 11005 11004 11003 11001 10999 10997 10994 10992 10989 10986 10983 10980 10977 10975 10973 10973 10972 10972 10973 10975 10976 10979 10980 10983 10985 10985 10986 10988 10989
11013 11013 11011 11016 11018 11018 11017 11017 11019 11020 11020 11019 11017 11015 11014 11010 11010 11008 11006 11005 11003 11002 11001 10999 10997 10995 10992 10988 10985 10983 10979 10976 10974 10971 10968 10968 10967 10967 10968 10970 10973 10976 10980 10982 10984 10985 10987 10989 10990
11010 11013 11013 11017 11019 11019 11018 11021 11023 11024 11023 11021 11020 11016 11015 11012 11010 11007 11005 11003 11001 10999 10997 10995 10993 10993 10990 10986 10983 10981 10979 10974 10969 10965 10963 10960 10960 10961 10964 10966 10971 10975 10978 10981 10983 10986 10989 10991 10992
11009 11012 11019 11020 11021 11022 11022 11025 11026 11027 11026 11026 11022 11018 11016 11013 11010 11006 11004 11001 10999 10996 10994 10992 10991 10990 10988 10984 10983 10980 10976 10970 10964 10960 10957 10954 10955 10957 10959 10962 10967 10972 10977 10980 10985 10990 10994 10995 10994
11017 11017 11022 11023 11025 11025 11025 11028 11030 11030 11029 11027 11025 11021 11018 11015 11011 11008 11006 11003 10999 10996 10994 10992 10991 10990 10989 10987 10984 10981 10976 10969 10965 10961 10958 10954 10953 10954 10958 10962 10967 10971 10977 10983 10988 10993 10995 10996 10996
11027 11024 11025 11027 11029 11029 11029 11033 11034 11033 11031 11029 11027 11024 11021 11019 11015 11012 11010 11007 11003 11000 10997 10994 10994 10992 10991 10990 10987 10985 10979 10972 10968 10965 10962 10960 10959 10960 10964 10966 10969 10976 10983 10990 10997 11002 11003 11004 11004
11030 11030 11031 11031 11032 11034 11036 11037 11036 11035 11034 11033 11030 11027 11025 11024 11022 11019 11016 11012 11007 11004 11001 10998 10996 10995 10994 10991 10991 10990 10985 10981 10974 10970 10969 10966 10967 10969 10972 10973 10973 10979 10986 10994 11001 11006 11005 11003 11004
11033 11036 11036 11036 11038 11040 11040 11038 11037 11037 11037 11035 11033 11032 11029 11029 11026 11022 11020 11017 11014 11011 11006 11002 11001 10999 10996 10995 10994 10991 10991 10987 10982 10977 10979 10978 10978 10974 10979 10981 10982 10987 10990 10999 11007 11006 11007 11006 11003
11034 11037 11038 11038 11040 11040 11040 11039 11039 11038 11039 11038 11035 11035 11033 11031 11029 11028 11025 11022 11019 11016 11014 11009 11007 11003 10999 10999 10997 10997 10995 10993 10990 10988 10986 10987 10987 10985 10986 10991 10993 10995 11001 11004 11005 11006 11004 11005 11003
11037 11035 11037 11039 11040 11039 11039 11038 11039 11040 11041 11040 11039 11037 11036 11035 11034 11031 11030 11026 11023 11020 11019 11016 11013 11011 11007 11005 11004 11003 11000 10998 10995 10995 10992 10994 10996 10993 10997 10999 11000 11000 11005 11004 11001 11003 11006 11005 11001
11040 11039 11037 11037 11038 11038 11038 11038 11040 11041 11043 11043 11042 11040 11039 11037 11036 11035 11033 11031 11028 11026 11024 11022 11020 11017 11014 11012 11011 11010 11007 11005 11002 11000 11003 11003 11001 10998 10999 11005 11005 11005 11006 11005 11002 11007 11010 11007 11005
11040 11041 11038 11037 11037 11037 11037 11038 11040 11042 11042 11042 11043 11042 11041 11041 11039 11036 11035 11033 11032 11029 11027 11026 11023 11022 11019 11017 11018 11017 11016 11013 11012 11007 11006 11004 11004 11005 11007 11007 11008 11009 11008 11005 11006 11007 11008 11006 11006
11036 11037 11039 11037 11037 11036 11037 11038 11040 11042 11042 11042 11043 11043 11042 11037 11036 11037 11036 11035 11034 11032 11030 11027 11027 11025 11023 11022 11021 11021 11021 11020 11019 11017 11018 11015 11014 11013 11010 11010 11013 11013 11012 11011 11008 11007 11008 11006 11007
11031 11033 11035 11035 11036 11036 11037 11038 11039 11040 11040 11041 11041 11041 11040 11039 11037 11035 11035 11035 11034 11033 11032 11029 11028 11027 11026 11026 11025 11024 11024 11023 11022 11022 11019 11015 11013 11011 11010 11010 11009 11010 11012 11012 11010 11008 11008 11006 11001
11026 11028 11031 11034 11034 11035 11037 11036 11036 11037 11038 11038 11038 11038 11037 11036 11035 11034 11033 11032 11031 11031 11031 11031 11030 11028 11027 11026 11025 11025 11024 11022 11022 11021 11017 11015 11012 11010 11009 11010 11009 11008 11010 11011 11010 11008 11006 11006 11003
11027 11026 11028 11033 11033 11032 11034 11033 11031 11032 11032 11032 11033 11033 11033 11032 11031 11030 11029 11029 11029 11030 11029 11029 11029 11028 11026 11024 11023 11023 11022 11020 11020 11019 11017 11018 11016 11017 11014 11009 11009 11010 11009 11009 11010 11008 11007 11006 11006
11023 11025 11027 11028 11028 11026 11025 11025 11025 11025 11026 11027 11027 11028 11027 11027 11026 11025 11026 11025 11026 11026 11026 11027 11026 11027 11027 11027 11025 11024 11021 11017 11015 11017 11016 11017 11018 11016 11016 11015 11015 11016 11013 11009 11007 11006 11006 11006 11006
11018 11021 11024 11021 11020 11015 11017 11019 11020 11020 11020 11022 11020 11022 11023 11023 11024 11021 11020 11021 11021 11022 11022 11022 11024 11025 11026 11026 11026 11023 11020 11017 11013 11015 11015 11017 11018 11017 11018 11017 11017 11016 11017 11014 11011 11008 11007 11006 11006
11013 11014 11011 11014 11014 11013 11010 11012 11017 11017 11016 11016 11017 11019 11017 11019 11019 11019 11017 11017 11017 11017 11017 11019 11021 11022 11022 11022 11019 11021 11019 11016 11015 11015 11014 11016 11014 11014 11013 11014 11014 11013 11014 11016 11013 11011 11008 11005 11004
11000 11000 11001 11002 11003 11005 11003 11008 11011 11008 11008 11010 11013 11015 11012 11011 11009 11008 11009 11010 11011 11012 11013 11016 11018 11019 11020 11022 11018 11018 11016 11013 11013 11012 11011 11010 11011 11011 11012 11006 11011 11010 11011 11011 11012 11009 11008 11006 11005
10986 10993 10986 10989 10992 10999 10994 11002 11003 10998 11003 11005 11007 11009 11006 11001 11004 11004 11003 11002 11002 11002 11003 11008 11011 11006 11011 11016 11014 11012 11013 11011 11010 11007 11005 11006 11004 11005 11004 11007 11007 11007 11006 11005 11004 11005 11004 11004 11002
10973 10980 10975 10978 10979 10980 10987 10992 10994 10985 10990 10995 10995 10998 11002 10998 10994 10996 10994 10993 10994 10987 10993 11000 11008 11002 11001 11006 11006 11003 11003 11001 10997 10998 10998 10997 10997 10997 10995 10995 10995 10996 11000 10997 10994 10996 10997 10998 10998
10965 10967 10966 10964 10964 10962 10963 10976 10982 10975 10979 10983 10985 10982 10986 10988 10984 10981 10985 10980 10980 10981 10992 10988 10990 10992 10991 10994 10994 10994 10992 10989 10985 10984 10986 10987 10988 10987 10989 10989 10986 10984 10986 10989 10988 10987 10989 10989 10990
10947 10954 10950 10952 10950 10947 10943 10950 10963 10964 10968 10973 10976 10972 10969 10970 10973 10971 10974 10971 10970 10971 10976 10980 10976 10980 10980 10977 10978 10978 10977 10976 10975 10972 10971 10974 10975 10973 10975 10976 10976 10973 10973 10974 10975 10977 10978 10979 10980
10935 10931 10933 10936 10939 10933 10930 10928 10936 10947 10954 10955 10959 10965 10962 10961 10958 10958 10960 10960 10957 10958 10963 10962 10963 10963 10961 10962 10962 10962 10962 10961 10959 10957 10956 10957 10958 10959 10962 10962 10961 10961 10960 10961 10960 10962 10965 10967 10968
10920 10916 10910 10919 10919 10918 10918 10904 10912 10941 10943 10941 10941 10945 10947 10947 10946 10944 10944 10941 10941 10944 10948 10951 10950 10949 10945 10945 10946 10945 10945 10942 10942 10941 10939 10941 10941 10939 10939 10942 10944 10944 10944 10944 10945 10946 10948 10950 10951
10897 10902 10899 10896 10906 10901 10901 10897 10904 10933 10924 10910 10913 10920 10928 10933 10931 10930 10933 10933 10932 10932 10931 10931 10932 10930 10929 10929 10928 10926 10926 10925 10924 10924 10922 10920 10920 10920 10921 10920 10923 10926 10924 10924 10926 10926 10929 10932 10934